Location: Holkham
(52.9500°N, 0.8167°E)
Time: 15:46:22
(UTC+00:00)

Okean 1 - Pass Details

Date: 19 May 2025
Orbit: 477 x 499 km, 82.5° (Epoch: 12 June)

Event Time Altitude Azimuth Distance (km) Brightness Sun altitude
Exits shadow 21:42:39 17° 170° (S) 1,310 4.7 -11.8°
Maximum altitude 21:45:19 54° 97° (E) 599 3.3 -12.0°
Drops below altitude 10° 21:48:55 10° 19° (NNE) 1,684 6.4 -12.3°
Sets 21:51:03 0° 15° (NNE) 2,566 7.5 -12.4°
